Probability
0 0 0 3 3 3 3 3 3 3 0 0 0 0 0 0 0 0 0 0 0 0 0 0 0 0 0 0 0 0 0 0 0 0 0 0 0 0 0 0 0 0 0
0 0 0 3 3 3 3 3 3 0 0 0 0 0 0 0 0 0 0 0 0 0 0 0 0 0 0 0 0 0 0 0 0 0 0 0 0 0 0 0 0 0 0
0 0 0 0 6 3 3 3 3 3 0 0 0 0 0 0 0 0 0 0 0 0 0 0 0 0 0 0 0 3 0 0 0 0 0 0 0 0 0 0 0 0 0
0 0 0 0 6 6 3 3 3 3 0 0 0 0 0 0 0 0 0 0 0 0 0 0 0 0 0 0 0 0 0 0 0 0 0 0 0 0 0 0 0 0 0
0 0 0 0 3 6 3 3 3 3 0 0 0 0 0 0 0 0 0 0 0 0 0 0 0 0 0 0 0 0 0 0 0 0 0 0 0 0 0 0 0 0 0
0 0 0 0 0 6 3 3 3 3 0 0 0 0 0 3 0 0 0 0 0 0 0 0 0 0 0 0 0 0 0 0 0 0 0 0 0 0 0 0 0 0 0
0 0 0 0 0 6 6 3 3 3 3 0 0 0 0 3 3 3 0 0 0 0 0 0 0 0 0 0 0 0 0 0 0 0 0 0 0 0 0 0 0 0 0
0 0 3 3 6 10 6 3 3 3 3 3 3 3 3 3 3 3 3 0 0 0 0 0 0 0 0 0 0 0 0 0 0 0 0 0 0 0 0 0 0 0 0
0 0 6 6 10 6 6 6 3 3 3 3 3 3 3 0 3 3 3 3 0 0 0 0 0 0 0 0 0 0 0 0 0 0 0 0 0 0 0 0 0 0 0
0 0 3 6 6 6 6 6 6 6 3 3 3 3 3 3 3 6 3 3 3 0 0 0 0 0 0 0 0 0 0 0 0 0 0 0 0 0 0 0 0 0 0
0 0 0 3 3 0 3 6 6 6 6 6 6 6 6 6 6 3 3 3 3 3 0 0 0 0 0 0 0 0 0 0 0 0 0 0 3 3 0 0 0 0 0
0 0 0 0 3 0 0 0 3 6 6 6 6 6 6 3 0 0 0 3 3 3 0 0 0 0 0 0 0 0 0 0 0 0 0 0 0 0 0 0 0 0 0
0 0 0 0 0 0 0 0 0 3 3 3 3 0 0 0 0 0 0 0 0 3 0 0 0 0 0 0 0 0 0 0 0 0 0 0 0 0 0 0 0 0 0
0 0 0 0 0 3 0 0 0 0 0 0 3 0 0 0 0 0 0 0 0 0 0 0 0 0 0 0 0 0 0 0 0 0 0 0 0 0 0 0 0 0 0
3 3 0 0 3 3 0 0 0 0 0 0 0 0 0 0 3 3 0 0 0 0 0 0 0 0 0 0 0 0 0 0 0 0 0 0 0 0 0 0 0 0 0
3 3 0 0 3 3 3 0 0 0 0 0 0 0 0 0 0 0 0 0 0 0 0 0 0 0 0 0 0 0 0 0 0 0 0 0 0 0 0 0 0 0 0
0 3 0 0 0 3 3 0 0 0 0 0 0 0 0 0 0 0 0 0 0 0 0 0 0 0 0 0 0 0 0 0 0 0 0 0 0 0 0 0 0 0 0
0 0 0 0 0 3 3 0 3 0 0 0 0 0 0 0 0 0 0 0 0 0 0 0 3 0 0 0 0 0 0 0 0 0 0 0 0 0 0 0 0 0 0
0 0 0 0 0 0 0 0 0 0 0 0 0 0 0 0 0 0 0 0 0 0 3 3 3 0 0 0 0 0 0 0 0 0 0 0 0 0 0 0 0 0 0
0 0 0 0 0 0 0 0 0 0 0 0 0 0 0 0 0 0 0 0 0 3 3 3 3 0 0 0 0 0 0 0 0 0 0 0 0 0 0 0 0 0 0
0 0 0 0 0 0 0 0 0 0 0 3 3 0 0 0 0 0 0 0 0 0 0 0 0 0 0 0 0 0 0 0 0 0 0 0 0 0 0 0 0 0 0
0 0 0 0 0 0 0 0 0 0 0 3 3 3 0 0 0 0 0 0 0 0 0 0 0 0 0 0 0 0 0 0 0 0 0 0 0 0 0 0 0 0 0
0 0 0 0 0 0 0 0 0 0 3 3 3 3 3 3 0 0 0 0 0 0 0 0 0 0 0 0 0 0 0 0 0 0 0 0 0 0 0 0 0 0 0
0 0 0 0 0 0 0 0 0 3 3 3 3 3 3 3 3 3 0 0 0 0 0 0 0 0 0 0 0 0 0 0 0 0 0 0 0 0 0 0 0 0 0
0 0 0 0 0 0 0 0 0 0 3 3 3 3 3 3 3 0 0 0 0 0 0 0 0 0 0 0 0 0 0 0 0 0 0 0 0 0 0 0 0 0 0
0 0 0 0 0 0 0 0 0 0 3 3 3 3 3 3 0 0 0 0 0 0 0 0 0 0 0 0 0 0 0 0 0 0 0 0 0 0 0 0 0 0 0
Height
5867 5868 5869 5870 5871 5872 5873 5874 5875 5876 5876 5877 5877 5877 5877 5878 5878 5878 5878 5877 5877 5877 5877 5876 5876 5875 5874 5873 5873 5872 5871 5871 5870 5870 5869 5868 5868 5866 5865 5864 5864 5863 5862
5864 5866 5867 5868 5869 5870 5871 5872 5873 5874 5874 5875 5875 5875 5875 5876 5876 5876 5876 5876 5875 5875 5875 5875 5874 5874 5873 5872 5872 5871 5870 5870 5869 5868 5868 5867 5867 5865 5864 5863 5862 5861 5861
5862 5863 5864 5865 5866 5868 5869 5869 5870 5871 5872 5872 5873 5873 5873 5873 5874 5874 5874 5874 5873 5874 5873 5873 5873 5872 5872 5871 5870 5869 5869 5868 5867 5867 5866 5865 5865 5863 5862 5861 5860 5859 5859
5859 5860 5862 5863 5864 5865 5866 5867 5868 5868 5869 5870 5870 5870 5871 5871 5871 5872 5872 5872 5872 5872 5872 5871 5871 5871 5870 5869 5869 5868 5867 5867 5866 5865 5864 5864 5862 5862 5861 5860 5859 5858 5857
5856 5858 5859 5860 5861 5862 5863 5864 5865 5866 5867 5867 5868 5868 5868 5869 5869 5869 5869 5870 5870 5870 5870 5869 5869 5869 5868 5868 5867 5866 5866 5865 5864 5863 5862 5861 5860 5860 5859 5858 5857 5856 5855
5854 5855 5856 5857 5858 5859 5860 5861 5862 5863 5864 5865 5865 5865 5866 5866 5867 5867 5867 5867 5868 5867 5867 5867 5867 5867 5866 5866 5865 5864 5864 5863 5862 5861 5860 5859 5858 5857 5856 5855 5854 5853 5852
5851 5852 5853 5854 5856 5857 5858 5859 5859 5860 5861 5862 5862 5863 5863 5864 5864 5864 5865 5865 5865 5865 5865 5864 5864 5864 5864 5863 5863 5862 5861 5860 5860 5859 5858 5857 5856 5855 5854 5853 5851 5850 5849
5849 5850 5851 5851 5853 5854 5855 5856 5856 5857 5858 5859 5860 5860 5861 5861 5861 5862 5862 5862 5862 5862 5862 5862 5861 5861 5861 5860 5860 5859 5859 5858 5857 5856 5855 5854 5853 5852 5851 5850 5849 5847 5846
5846 5846 5848 5849 5850 5851 5852 5853 5854 5855 5855 5856 5857 5857 5858 5858 5859 5859 5859 5860 5859 5859 5859 5859 5859 5858 5858 5857 5857 5856 5856 5855 5854 5853 5852 5851 5850 5849 5847 5846 5845 5845 5843
5843 5844 5845 5846 5847 5847 5849 5849 5851 5852 5852 5853 5854 5854 5855 5855 5856 5856 5856 5856 5856 5856 5856 5856 5855 5855 5855 5854 5854 5853 5852 5851 5851 5850 5849 5848 5847 5845 5844 5843 5842 5841 5840
5841 5842 5842 5843 5843 5844 5845 5846 5847 5848 5849 5850 5851 5851 5852 5852 5853 5853 5853 5853 5853 5853 5853 5852 5852 5852 5851 5851 5850 5849 5848 5848 5847 5846 5845 5844 5843 5842 5841 5839 5838 5837 5835
5838 5839 5839 5840 5841 5841 5842 5843 5844 5845 5846 5847 5847 5848 5849 5849 5849 5850 5850 5850 5849 5849 5849 5849 5848 5848 5848 5847 5846 5846 5845 5844 5843 5842 5841 5840 5839 5838 5836 5835 5834 5832 5831
5836 5836 5837 5837 5837 5838 5839 5840 5841 5842 5843 5843 5844 5845 5845 5845 5846 5846 5846 5846 5846 5846 5845 5845 5845 5844 5844 5843 5842 5842 5841 5840 5839 5838 5837 5836 5834 5833 5832 5831 5829 5828 5826
5833 5833 5833 5834 5834 5835 5836 5837 5837 5838 5839 5840 5840 5841 5841 5842 5842 5842 5842 5842 5842 5841 5841 5841 5841 5840 5840 5839 5838 5837 5836 5835 5834 5833 5832 5831 5830 5828 5827 5826 5824 5822 5821
5829 5830 5830 5830 5831 5831 5832 5833 5834 5835 5835 5836 5837 5837 5837 5838 5838 5838 5838 5838 5837 5837 5837 5836 5836 5836 5835 5834 5833 5832 5831 5830 5829 5828 5827 5826 5824 5823 5822 5820 5818 5817 5815
5826 5826 5826 5827 5827 5828 5828 5829 5830 5831 5831 5832 5832 5833 5833 5833 5834 5834 5833 5833 5833 5832 5832 5832 5831 5831 5830 5829 5828 5827 5827 5825 5824 5823 5822 5820 5819 5817 5816 5814 5812 5810 5808
5822 5822 5823 5823 5824 5824 5825 5825 5826 5826 5827 5828 5828 5828 5828 5829 5829 5829 5829 5828 5828 5828 5827 5827 5826 5826 5825 5824 5823 5822 5821 5820 5819 5817 5816 5814 5813 5811 5809 5807 5805 5803 5801
5819 5819 5819 5820 5820 5820 5821 5821 5822 5822 5823 5823 5823 5824 5824 5824 5824 5824 5824 5823 5823 5823 5822 5822 5821 5820 5819 5818 5817 5816 5815 5814 5812 5811 5810 5808 5806 5804 5802 5800 5798 5796 5794
5815 5815 5816 5816 5816 5816 5816 5817 5818 5818 5818 5818 5819 5819 5819 5819 5819 5819 5818 5818 5818 5817 5817 5816 5816 5815 5814 5813 5811 5810 5809 5808 5806 5804 5803 5801 5799 5797 5795 5793 5791 5788 5786
5811 5811 5811 5811 5812 5812 5812 5813 5813 5813 5814 5814 5814 5814 5814 5814 5814 5814 5813 5813 5813 5812 5812 5811 5810 5809 5808 5807 5805 5804 5803 5801 5800 5798 5796 5793 5791 5789 5786 5784 5782 5780 5777
5807 5807 5807 5807 5807 5807 5808 5808 5808 5809 5809 5809 5809 5809 5809 5809 5809 5808 5808 5808 5807 5807 5806 5805 5804 5803 5802 5800 5799 5797 5795 5794 5792 5790 5788 5785 5783 5780 5778 5775 5773 5770 5767
5802 5802 5802 5802 5802 5802 5803 5803 5803 5803 5804 5804 5804 5804 5804 5804 5803 5803 5802 5802 5801 5801 5800 5799 5798 5796 5795 5793 5791 5789 5787 5786 5784 5782 5779 5776 5774 5771 5768 5765 5763 5760 5757
5797 5797 5797 5797 5797 5797 5797 5798 5798 5798 5798 5798 5798 5798 5798 5798 5797 5797 5796 5795 5795 5794 5793 5792 5791 5789 5787 5786 5783 5781 5779 5777 5775 5773 5770 5767 5764 5761 5758 5755 5753 5750 5747
5792 5792 5792 5792 5792 5792 5792 5792 5792 5792 5792 5792 5792 5792 5792 5791 5791 5790 5790 5789 5788 5787 5786 5785 5783 5782 5780 5778 5775 5773 5770 5768 5765 5763 5760 5757 5754 5751 5748 5745 5742 5739 5736
5786 5786 5786 5786 5786 5786 5786 5786 5786 5786 5786 5785 5785 5785 5785 5784 5784 5783 5782 5781 5780 5779 5778 5776 5775 5773 5771 5769 5766 5764 5761 5758 5756 5753 5750 5747 5744 5741 5738 5735 5731 5728 5725
5779 5779 5779 5779 5779 5779 5779 5779 5779 5779 5778 5778 5778 5778 5777 5777 5776 5775 5774 5773 5772 5771 5769 5767 5765 5763 5761 5759 5756 5753 5751 5748 5745 5742 5739 5736 5733 5729 5726 5723 5720 5716 5713
Wind_Speed
13 13 12 12 11 10 10 10 10 10 10 10 9 8 8 8 8 8 8 8 8 7 7 7 7 7 7 7 7 7 7 7 7 8 8 8 8 9 9 10 9 9 9
13 13 12 12 11 10 10 10 10 10 10 10 10 9 9 9 8 8 8 8 8 7 8 8 7 8 8 8 8 8 8 8 8 8 8 9 9 10 10 10 9 9 9
13 13 12 12 11 11 11 11 11 11 11 11 11 10 10 9 9 9 9 8 8 8 8 8 8 8 8 8 8 8 8 9 9 9 9 9 10 10 10 10 10 10 10
13 12 12 12 12 12 12 12 11 11 11 12 11 11 10 9 9 9 9 9 8 8 8 9 9 9 9 9 9 9 9 9 9 10 10 10 10 11 10 10 10 10 10
13 12 13 13 13 13 13 12 12 12 11 11 10 10 10 9 9 9 9 9 9 9 9 10 10 10 10 10 10 10 10 10 10 10 11 11 11 11 11 12 12 12 12
12 12 13 13 13 13 13 13 13 12 11 11 10 10 10 9 9 9 10 10 10 10 10 11 11 11 11 11 11 11 11 11 11 11 12 12 12 12 13 13 13 13 13
13 12 13 13 14 13 13 13 12 12 12 11 11 10 11 10 10 10 10 10 11 11 11 11 11 11 11 11 12 12 12 12 12 13 13 13 13 13 13 13 13 13 13
13 13 13 13 13 12 12 13 13 12 12 12 11 11 11 11 10 11 11 11 11 11 11 12 12 12 12 12 12 12 13 13 14 14 14 13 13 14 14 14 14 13 13
12 12 13 13 13 13 12 13 12 13 13 13 12 11 11 11 11 11 12 12 12 12 12 12 13 13 13 12 13 13 14 14 14 14 14 14 14 14 14 14 14 14 14
11 12 12 12 13 13 14 14 13 13 13 13 12 12 12 12 12 12 12 13 13 13 13 13 13 13 13 13 14 14 14 15 15 15 15 15 15 15 15 16 16 16 15
11 11 11 12 12 13 13 13 13 13 13 13 12 12 12 12 13 13 13 14 14 14 14 14 14 14 14 14 14 15 15 15 15 15 16 16 16 16 16 17 17 17 17
11 12 12 13 13 13 13 13 13 13 13 12 12 12 13 13 14 14 14 14 14 14 14 15 15 15 15 15 15 16 16 17 17 17 17 17 17 17 17 18 18 18 19
12 12 12 13 13 13 13 13 14 13 14 14 14 14 14 14 14 14 15 15 15 15 15 16 16 16 16 17 17 17 18 18 18 18 18 18 18 18 19 19 19 20 20
13 13 13 13 13 13 13 13 14 14 14 14 14 15 14 14 15 15 16 16 16 16 16 17 17 17 18 18 18 18 19 19 19 18 18 18 19 19 19 20 20 21 22
14 14 14 14 13 14 14 14 14 14 15 15 15 15 15 15 15 16 16 17 17 17 17 18 18 18 19 19 19 20 20 19 19 19 19 19 20 21 21 21 22 23 23
14 14 14 14 14 14 14 15 15 15 16 16 16 16 16 16 16 16 17 17 17 18 18 18 19 19 20 20 20 21 21 21 21 21 21 22 23 23 23 24 24 25 25
14 14 13 13 14 14 15 15 16 16 16 16 17 17 17 17 17 17 17 17 18 18 19 19 20 20 20 21 21 22 22 22 22 23 23 24 24 24 25 26 26 27 27
15 14 13 14 14 14 14 14 15 16 16 16 16 17 17 18 18 18 18 18 18 18 19 19 19 20 21 22 22 23 23 23 23 24 24 24 25 25 26 26 27 28 29
15 15 15 15 15 15 15 15 16 16 17 17 16 16 17 18 18 19 18 18 19 19 19 20 20 21 21 22 23 24 24 25 25 25 26 26 26 27 27 28 28 29 30
16 16 16 17 16 16 16 17 17 17 17 17 17 17 17 18 19 19 19 19 19 20 21 21 21 22 22 23 24 25 26 26 26 26 26 27 28 29 29 29 30 31 31
16 16 16 17 17 17 17 18 18 17 17 17 17 18 18 18 19 19 19 19 20 21 21 22 22 23 24 24 25 25 26 26 27 27 28 28 29 30 31 32 32 32 33
17 17 16 17 18 18 19 19 19 19 19 19 19 19 19 20 20 20 21 21 21 22 23 23 24 25 25 26 26 27 28 28 29 29 30 30 32 32 33 33 33 33 33
18 18 18 18 18 19 19 19 19 19 19 20 20 20 20 21 21 22 22 22 23 23 24 24 25 25 26 26 27 28 29 30 31 31 32 32 33 33 33 33 34 34 35
19 19 20 20 20 20 20 20 21 21 21 21 21 21 21 22 22 23 23 24 24 25 25 25 26 26 27 28 29 30 31 32 32 32 33 33 34 34 34 35 35 36 37
21 21 21 22 22 22 22 22 22 22 22 22 23 23 23 23 24 25 25 25 25 26 26 27 28 28 29 30 31 32 33 34 34 35 35 36 35 35 36 37 37 37 38
22 22 23 23 23 23 23 23 23 23 23 24 24 24 24 24 25 27 27 28 28 28 29 30 30 30 31 32 33 34 34 35 36 37 37 37 37 37 37 37 37 38 38
Wind_Direction
256 252 250 251 253 254 253 256 260 263 265 268 270 273 277 278 276 279 280 286 291 297 304 308 308 310 311 310 312 314 315 314 313 315 316 317 317 319 318 314 311 309 306
259 256 253 252 253 254 255 257 261 264 266 269 269 272 274 274 273 274 277 279 281 286 294 299 304 309 308 306 308 309 309 311 313 313 313 314 316 317 317 316 312 311 309
258 259 256 252 252 254 259 261 263 264 266 269 271 272 273 271 269 271 273 278 279 280 285 290 295 301 305 305 307 309 309 309 311 311 311 311 312 313 312 310 309 306 306
260 259 256 254 254 256 260 263 266 263 265 269 269 270 270 271 269 270 273 276 277 278 281 286 291 296 301 303 305 308 310 311 314 314 314 313 312 312 312 310 308 305 304
260 260 260 258 257 259 261 262 263 261 262 267 269 268 269 268 268 267 270 273 274 275 278 283 287 292 296 300 305 307 308 309 311 311 311 312 312 312 310 309 307 305 304
257 259 260 259 259 261 261 261 261 259 261 264 265 265 266 268 267 269 272 273 274 276 279 281 285 289 291 294 298 301 302 304 307 308 309 309 309 308 309 309 308 307 306
258 261 260 257 258 259 259 260 260 257 258 261 262 262 264 268 268 271 273 273 275 278 281 284 286 289 290 292 295 297 299 302 303 305 307 306 306 306 307 307 308 310 309
264 259 258 257 257 258 258 259 257 254 256 258 260 263 265 267 267 270 273 274 276 279 282 286 289 291 291 292 293 294 296 298 300 301 303 304 304 304 305 306 306 307 308
264 259 254 256 256 256 257 260 255 254 255 258 261 263 265 267 269 272 276 279 279 279 282 287 291 291 291 291 291 292 295 296 298 298 298 299 300 301 302 304 304 304 305
262 260 258 258 257 259 260 257 254 255 258 260 261 263 264 265 268 273 275 278 281 280 281 284 290 291 290 290 290 292 294 295 295 295 296 296 297 298 300 301 301 301 301
263 263 265 265 264 261 259 255 255 255 257 260 260 261 264 266 269 274 276 277 278 281 282 282 285 286 287 290 292 292 293 295 295 295 295 296 296 297 298 299 300 301 301
266 269 270 269 267 263 256 255 255 254 256 258 258 261 265 267 270 273 274 275 278 280 280 281 282 284 286 289 291 293 292 293 293 293 293 295 295 297 298 298 299 300 300
267 268 271 273 270 263 257 256 256 255 258 262 264 265 267 269 270 272 274 276 278 279 279 280 282 284 286 288 290 292 292 293 293 293 293 293 294 294 296 297 298 298 298
271 269 272 273 270 262 259 261 258 257 260 263 265 266 268 271 273 274 275 278 278 279 280 281 282 283 285 287 289 292 293 293 294 293 293 294 295 294 295 296 297 297 297
274 273 272 271 269 264 261 262 261 260 260 262 264 267 267 270 273 274 276 278 277 277 279 281 283 284 285 286 288 290 291 291 292 292 292 293 294 294 295 296 296 297 297
275 273 270 268 267 264 260 260 262 262 260 261 263 267 267 270 274 275 277 279 278 278 279 281 282 284 285 285 286 290 291 291 291 291 291 292 292 293 294 294 295 296 296
275 272 271 269 269 265 262 262 263 263 263 264 266 267 267 271 274 277 279 280 280 280 280 281 282 284 285 285 286 288 290 290 289 290 291 292 292 293 293 294 295 296 296
271 272 274 271 269 267 264 265 267 267 267 267 266 267 270 272 275 277 279 278 279 280 280 281 283 284 285 286 286 288 290 290 289 290 291 292 292 293 294 296 296 296 296
272 273 274 273 271 270 266 266 267 270 268 268 268 268 273 275 276 277 278 277 278 280 280 282 284 286 287 288 288 289 290 290 290 290 291 292 294 294 294 294 294 295 295
273 271 271 271 271 270 269 268 269 271 271 271 269 271 274 277 279 280 279 279 281 282 283 285 287 288 289 289 290 291 291 292 292 292 292 293 294 294 294 294 294 295 295
271 272 270 270 270 270 270 270 271 270 272 271 271 273 276 278 279 280 280 280 282 284 286 286 288 290 290 290 291 292 292 291 292 293 294 294 294 294 294 295 295 295 295
271 271 272 272 270 270 269 270 270 270 271 272 274 275 276 278 279 281 281 282 282 284 286 287 289 291 291 290 290 292 292 291 292 293 294 294 294 294 294 294 295 295 296
270 272 273 276 274 271 269 268 270 273 274 274 276 277 277 279 280 281 283 284 285 285 286 287 288 290 291 291 291 291 292 292 292 293 293 294 295 295 294 293 293 294 295
268 270 272 275 277 273 271 272 272 273 275 275 275 276 278 279 280 282 282 284 286 286 287 287 287 288 289 290 291 291 292 293 293 294 294 294 294 294 294 293 293 294 294
268 270 272 272 275 275 273 271 273 274 275 275 276 277 278 279 280 281 283 284 286 287 288 288 288 289 290 291 292 292 292 292 293 293 294 293 293 293 293 294 295 295 296
268 270 271 271 271 273 273 272 273 274 275 276 278 279 279 281 282 283 283 284 286 288 288 289 289 290 291 291 292 292 293 293 294 294 294 294 293 293 294 295 295 296 296